EW9423 Weather Reports


time (UTC)temp
C
wind
direction
speed
KPH
gust
KPH
rain 1hr
cm
rain 24hr
cm
rain mn
cm
humidity
%
barometer
mb
20260506125017 14 270 4.8 19.3 0.00 0.00 0.00 46 1012.7
20260506124017 14 331 3.2 17.7 0.00 0.00 0.00 43 1012.8
20260506123016 15 271 3.2 16.1 0.00 0.00 0.00 41 1012.8
20260506122016 15 311 3.2 11.3 0.00 0.00 0.00 44 1012.7
20260506121016 15 320 3.2 12.9 0.00 0.00 0.00 45 1012.8
20260506120016 15 325 4.8 16.1 0.00 0.00 0.00 42 1012.9
20260506115036 15 317 6.4 14.5 0.00 0.00 0.00 42 1012.9
20260506114016 15 290 4.8 11.3 0.00 0.00 0.00 40 1013.0
20260506113017 15 65 1.6 6.4 0.00 0.00 0.00 41 1013.0
20260506112016 14 112 1.6 12.9 0.00 0.00 0.00 41 1013.0
20260506111016 14 316 3.2 9.7 0.00 0.00 0.00 40 1013.0
20260506110016 13 47 1.6 6.4 0.00 0.00 0.00 42 1013.1
20260506105017 13 266 3.2 11.3 0.00 0.00 0.00 39 1013.2
20260506104036 12 265 1.6 11.3 0.00 0.00 0.00 43 1013.2
20260506103056 12 280 1.6 9.7 0.00 0.00 0.00 45 1013.2
20260506102016 12 303 3.2 8.0 0.00 0.00 0.00 47 1013.2
20260506101016 13 321 3.2 9.7 0.00 0.00 0.00 45 1013.3
20260506100016 15 39 1.6 8.0 0.00 0.00 0.00 44 1013.3
20260506095036 14 312 1.6 6.4 0.00 0.00 0.00 44 1013.3
20260506094016 13 144 1.6 9.7 0.00 0.00 0.00 44 1013.3
20260506093016 13 338 1.6 8.0 0.00 0.00 0.00 45 1013.3
20260506092036 13 319 3.2 8.0 0.00 0.00 0.00 44 1013.3
20260506091016 12 91 1.6 3.2 0.00 0.00 0.00 44 1013.4
20260506090016 12 346 1.6 6.4 0.00 0.00 0.00 45 1013.4
20260506085016 13 81 1.6 6.4 0.00 0.00 0.00 47 1013.4
20260506084016 13 32 1.6 8.0 0.00 0.00 0.00 47 1013.4
20260506083016 13 19 3.2 4.8 0.00 0.00 0.00 49 1013.4
20260506082016 12 23 1.6 8.0 0.00 0.00 0.00 53 1013.5
20260506081036 12 350 1.6 6.4 0.00 0.00 0.00 57 1013.6
20260506073116 12 339 1.6 6.4 0.00 0.00 0.00 60 1013.3
20260506072016 12 322 1.6 4.8 0.00 0.00 0.00 61 1013.3
20260506071016 11 14 0.0 4.8 0.00 0.00 0.00 65 1013.3
20260506062016 9 0 0.0 0.0 0.00 0.00 0.00 75 1013.1
20260506061016 8 0 0.0 0.0 0.00 0.00 0.00 78 1013.1
20260506051016 3 0 0.0 0.0 0.00 0.00 0.00 91 1013.3
20260506045016 2 0 0.0 0.0 0.00 0.00 0.00 92 1013.3
20260506044016 1 0 0.0 0.0 0.00 0.00 0.00 92 1013.4
20260506043016 1 0 0.0 0.0 0.00 0.00 0.00 91 1013.4
20260506042016 1 0 0.0 1.6 0.00 0.00 0.00 91 1013.3
20260506041016 1 0 0.0 1.6 0.00 0.00 0.00 91 1013.4
20260506040016 0 113 1.6 3.2 0.00 0.00 0.00 89 1013.2
20260506035016 0 0 0.0 0.0 0.00 0.00 0.00 89 1013.2
20260506034056 0 191 0.0 1.6 0.00 0.00 0.00 88 1013.2
20260506033016 0 0 0.0 0.0 0.00 0.00 0.00 88 1013.2
20260506032035 0 0 0.0 0.0 0.00 0.00 0.00 88 1013.1
20260506031035 0 0 0.0 1.6 0.00 0.00 0.00 88 1013.0
20260506030018 1 312 0.0 1.6 0.00 0.00 0.00 88 1013.1
20260506025018 1 0 0.0 0.0 0.00 0.00 0.00 88 1013.0
20260506024018 1 0 0.0 0.0 0.00 0.00 0.00 88 1013.1
20260506023018 1 0 0.0 0.0 0.00 0.00 0.00 88 1013.2
20260506022039 1 0 0.0 0.0 0.00 0.00 0.00 88 1013.3
20260506021018 1 0 0.0 0.0 0.00 0.00 0.00 87 1013.4
20260506020018 1 0 0.0 0.0 0.00 0.00 0.00 86 1013.4
20260506015036 1 0 0.0 0.0 0.00 0.00 0.00 87 1013.3
20260506014018 1 312 0.0 3.2 0.00 0.00 0.00 87 1013.2
20260506013016 1 0 0.0 0.0 0.00 0.00 0.00 87 1013.2
20260506012018 2 0 0.0 0.0 0.00 0.00 0.00 87 1013.2
20260506011038 2 0 0.0 0.0 0.00 0.00 0.00 86 1013.2
20260506010018 2 312 0.0 1.6 0.00 0.00 0.00 86 1013.1
20260506005039 2 0 0.0 0.0 0.00 0.00 0.00 86 1013.2
20260506004018 2 0 0.0 3.2 0.00 0.00 0.00 86 1013.2
20260506003018 2 0 0.0 0.0 0.00 0.00 0.00 86 1013.4
20260506002018 2 0 0.0 0.0 0.00 0.00 0.00 85 1013.3
20260506001018 2 316 0.0 1.6 0.00 0.00 0.00 84 1013.4
20260506000018 2 0 0.0 0.0 0.00 0.00 0.00 84 1013.4
20260505235018 3 0 0.0 0.0 0.00 0.00 0.00 83 1013.3
20260505234038 3 0 0.0 0.0 0.00 0.00 0.00 83 1013.3
20260505233018 3 0 0.0 0.0 0.00 0.00 0.00 82 1013.3
20260505232058 3 0 0.0 0.0 0.00 0.00 0.00 81 1013.4
20260505231018 3 0 0.0 0.0 0.00 0.00 0.00 81 1013.4
20260505230018 4 0 0.0 0.0 0.00 0.00 0.00 80 1013.5
20260505225017 5 0 0.0 0.0 0.00 0.00 0.00 79 1013.5
20260505224017 5 0 0.0 0.0 0.00 0.00 0.00 79 1013.6
20260505223038 5 0 0.0 0.0 0.00 0.00 0.00 78 1013.6
20260505222038 5 0 0.0 0.0 0.00 0.00 0.00 78 1013.7
20260505221017 6 0 0.0 0.0 0.00 0.00 0.00 77 1013.7
20260505220018 6 0 0.0 0.0 0.00 0.00 0.00 76 1013.7
20260505215038 6 0 0.0 0.0 0.00 0.00 0.00 76 1013.7
20260505214017 6 0 0.0 1.6 0.00 0.00 0.00 75 1013.7
20260505213018 6 0 0.0 0.0 0.00 0.00 0.00 75 1013.8
20260505212017 6 316 0.0 3.2 0.00 0.00 0.00 74 1013.8
20260505211017 6 0 0.0 0.0 0.00 0.00 0.00 73 1013.8
20260505210017 7 0 0.0 0.0 0.00 0.00 0.00 72 1013.7
20260505205017 7 0 0.0 1.6 0.00 0.00 0.00 72 1013.7
20260505204018 7 317 0.0 6.4 0.00 0.00 0.00 71 1013.7
20260505203017 7 319 1.6 4.8 0.00 0.00 0.00 71 1013.7
20260505202037 7 315 1.6 4.8 0.00 0.00 0.00 70 1013.7
20260505201017 7 315 3.2 8.0 0.00 0.00 0.00 69 1013.8
20260505200018 7 312 1.6 8.0 0.00 0.00 0.00 69 1013.8
20260505195017 7 310 1.6 6.4 0.00 0.00 0.00 68 1013.8
20260505194017 7 309 1.6 6.4 0.00 0.00 0.00 67 1013.7
20260505193038 7 316 3.2 6.4 0.00 0.00 0.00 66 1013.7
20260505192017 7 306 1.6 6.4 0.00 0.00 0.00 65 1013.7
20260505191017 7 319 1.6 6.4 0.00 0.00 0.00 64 1013.5
20260505190017 8 322 3.2 6.4 0.00 0.00 0.00 63 1013.5
20260505185017 8 319 3.2 8.0 0.00 0.00 0.00 62 1013.6
20260505184017 8 311 1.6 6.4 0.00 0.00 0.00 60 1013.5
20260505183017 8 325 4.8 14.5 0.00 0.00 0.00 59 1013.5
20260505182017 9 315 4.8 9.7 0.00 0.00 0.00 59 1013.3
20260505181017 9 317 3.2 8.0 0.00 0.00 0.00 56 1013.4
20260505180017 9 326 1.6 8.0 0.00 0.00 0.00 57 1013.3
20260505175017 10 320 4.8 9.7 0.00 0.00 0.00 57 1013.1
20260505174015 10 323 1.6 6.4 0.00 0.00 0.00 49 1013.1
20260505173036 10 259 1.6 6.4 0.00 0.00 0.00 51 1013.2
20260505172017 10 277 1.6 9.7 0.00 0.00 0.00 56 1013.3
20260505171037 10 314 4.8 9.7 0.00 0.00 0.00 57 1013.3
20260505170017 10 308 3.2 8.0 0.00 0.00 0.00 53 1013.3
20260505165017 10 303 3.2 12.9 0.00 0.00 0.00 51 1013.2
20260505164017 10 318 3.2 9.7 0.00 0.00 0.00 53 1013.3
20260505163017 10 322 3.2 8.0 0.00 0.00 0.00 51 1013.2
20260505162016 10 313 3.2 8.0 0.00 0.00 0.00 50 1013.2
20260505161017 10 314 3.2 14.5 0.00 0.00 0.00 49 1013.2
20260505153017 12 321 6.4 16.1 0.00 0.00 0.00 37 1013.1
20260505152017 12 322 8.0 17.7 0.00 0.00 0.00 37 1013.0
20260505151057 12 321 6.4 16.1 0.00 0.00 0.00 36 1013.0